User: anonymous   Login
Location: Lawrence Hall of Science
(37.8785°N, 122.2415°W)
Time: 13:36:12
(UTC-07:00)
Language:

Cosmos 1461 - Orbit

View from above orbital plane
View from above orbital plane
View from above satellite
View from above satellite

Ground track
Ground track

The orbit data is extracted from the following two-line orbital elements,

1 14064U 83044A   18145.54604489  .00000235  00000-0  33946-4 0  9992
2 14064  65.0005 305.1102 0120666 269.7745  88.9543 14.94076590774499
Epoch (UTC): 25 May 2018 13:06:18
Eccentricity: 0.0120666
inclination: 65.0005°
perigee height: 501 km
apogee height: 669 km
right ascension of ascending node: 305.1102°
argument of perigee: 269.7745°
revolutions per day: 14.94076590
mean anomaly at epoch: 88.9543°
orbit number at epoch: 77449

The dashed part of the orbit path shows where the satellite is in the earth's shadow,  

DLR